sat.trackr.live / text

‹ back to catalog

STARLINK-32842

NORAD 62822 · 2025-018S

PAYLOAD ACTIVE UNKNOWN

§ Identity

Operator
Country
US
Launch date
2025-01-24
Launch site
AFWTR
Launch vehicle
Mass (kg)
RCS (m²)

Purposes: comms

External: N2YO · Heavens-Above · Gunter

§ Orbital elements

Epoch: 2026-09-21T19:32:46.917888Z

Period
93.85 min
Inclination
53.1568°
Eccentricity
0.0001205
Mean motion
15.34392769 rev/d
Perigee alt
461.9 km
Apogee alt
463.5 km
Semi-major
6,840.9 km
B*
4.7247e-4
RAAN
115.2379°
Arg perigee
112.1996°
Mean anomaly
247.9134°
Rev number
9,325

§ Raw data

STARLINK-328421 62822U 25018S   26264.81443192  .00015617  00000+0  47247-3 0  99942 62822  53.1568 115.2379 0001205 112.1996 247.9134 15.34392769 93253

JSON: /api/v1/satellites/62822 · /tle

For live sub-satellite position, see the globe view (requires WebGL).

§ Visibility from observer

Set your observer location to see the next 7 days of passes ≥ 10°. The values pass through the URL so the page stays shareable.

No JS? Fill the form by hand. The geolocation button needs JavaScript.